Simultaneous Nadir Overpasses (SNOs) Predictions

Prediction of SNOs between NOAA-19 and NPP Satellite Orbit:

Table of predicted SNOs for the next 14.0 days since TLE Epoch: 3/30/2017
Index Date (NOAA-19) Time (NOAA-19) Lat,Lon (NOAA-19) SZA (NOAA-19 ) Date (NPP) Time (NPP) Lat,Lon (NPP) SZA (NPP ) Distance(km) Time Diff (sec)
1 04/12/2017 23:04:44 80.87, 142.98 75.28 04/12/2017 23:05:59 80.86, 143.08 75.23 1.91 75
2 04/12/2017 23:55:45 -80.87, -49.85 104.73 04/12/2017 23:56:45 -80.87, -49.86 104.75 0.77 60
3 04/13/2017 00:46:45 80.87, 117.72 75.23 04/13/2017 00:47:29 80.86, 117.67 75.21 1.58 44
4 04/13/2017 01:37:46 -80.87, -75.11 104.78 04/13/2017 01:38:15 -80.87, -75.27 104.77 2.78 29
5 04/13/2017 02:28:47 80.87, 92.08 75.22 04/13/2017 02:29:00 80.88, 91.91 75.24 3.23 13
6 04/13/2017
